This demonstration page uses our WeatherBlox Daily Observations layout. Learn more.

Left ArrowRight Arrow

Hourly Observations for July 24, 2021

Temp ( °F °C ) Dew Point ( °F °C ) Humidity (%) Winds ( mph kmh ) Pressure ( in mb ) Visibility ( mi km ) Precip ( " mm )
12:53 am 00:53 Clear 61 16.1 33 0.6 35 35 SSW 5 7 30.01 1016 7 11 0.00 0.00
1:53 am 01:53 Clear 58 14.4 32 0 38 38 S 10 17 30.02 1017 7 11 0.00 0.00
2:53 am 02:53 Clear 59 15 34 1.1 39 39 SSW 10 17 30.04 1017 8 13 0.00 0.00
3:53 am 03:53 Clear 58 14.4 33 0.6 39 39 SW 10 17 30.05 1018 10 16 0.00 0.00
4:53 am 04:53 Clear 56 13.3 34 1.1 44 44 WSW 9 15 30.06 1018 10 16 0.00 0.00
5:53 am 05:53 Sunny 56 13.3 35 1.7 46 46 SW 10 17 30.07 1018 10 16 0.00 0.00
6:53 am 06:53 Sunny 56 13.3 35 1.7 46 46 SW 12 19 30.08 1019 10 16 0.00 0.00
7:53 am 07:53 Sunny 64 17.8 36 2.2 35 35 WSW 14 22 30.09 1019 10 16 0.00 0.00
8:53 am 08:53 Sunny 68 20 37 2.8 32 32 WSW 14 22 30.11 1020 10 16 0.00 0.00
9:53 am 09:53 Sunny 72 22.2 37 2.8 28 28 WSW 13 20 30.11 1020 9 14 0.00 0.00
10:53 am 10:53 Sunny 76 24.4 37 2.8 24 24 WSW 10 17 30.10 1019 8 13 0.00 0.00
11:53 am 11:53 Hazy 80 26.7 37 2.8 21 21 WSW 7 11 30.09 1019 6 10 0.00 0.00
12:53 pm 12:53 Hazy 83 28.3 34 1.1 17 17 WSW 8 13 30.06 1018 5 8 0.00 0.00
1:53 pm 13:53 Hazy 86 30 31 -0.6 14 14 NW 9 15 30.04 1017 6 10 0.00 0.00
2:53 pm 14:53 Hazy 88 31.1 30 -1.1 12 12 WNW 7 11 30.02 1017 6 10 0.00 0.00
3:53 pm 15:53 Hazy 89 31.7 30 -1.1 12 12 N 7 11 30.00 1016 5 8 0.00 0.00
4:53 pm 16:53 Hazy 89 31.7 29 -1.7 11 11 VRB 5 7 29.97 1015 6 10 0.00 0.00
5:53 pm 17:53 Hazy 89 31.7 29 -1.7 11 11 Calm 29.95 1014 6 10 0.00 0.00
6:53 pm 18:53 Hazy 89 31.7 29 -1.7 11 11 W 9 15 29.94 1014 5 8 0.00 0.00
7:53 pm 19:53 Hazy 86 30 31 -0.6 14 14 WNW 5 7 29.92 1013 5 8 0.00 0.00
8:53 pm 20:53 Hazy 75 23.9 35 1.7 23 23 S 3 6 29.93 1014 4 6 0.00 0.00
9:53 pm 21:53 Hazy 68 20 39 3.9 35 35 E 6 9 29.94 1014 6 10 0.00 0.00
10:53 pm 22:53 Hazy 72 22.2 34 1.1 25 25 Calm 29.93 1014 6 10 0.00 0.00
11:53 pm 23:53 Hazy 67 19.4 38 3.3 35 35 Calm 29.93 1014 6 10 0.00 0.00

Powered by AerisWeather